Bellingham, Washington, United States (98225)
Lat: 48.76N, Lon: 122.49W
Wx Zone: WAZ503
Local Info
Past Weather Observations for Wednesday, November 19, 2014

NOTE: This archive is for the closest National Weather Service station to Bellingham. Information may differ from the station used for current weather conditions.

Click here for Long-term Archive

Time Weather Temperature Dewpoint Humidity Pressure Winds Precip Visibility
23:53
Overcast
43°F / 6°C 34°F / 1°C 71% 29.83 in
(1010 mb)
Calm - 10SM
22:53
Mostly Cloudy
43°F / 6°C 34°F / 1°C 71% 29.83 in
(1010 mb)
N 3.5 mph
(N 6 kph)
- 10SM
21:53
Overcast
41°F / 5°C 36°F / 2°C 81% 29.83 in
(1010 mb)
Calm 0.00 in
(0.00 mm)
9SM
20:53
Overcast
43°F / 6°C 36°F / 2°C 76% 29.83 in
(1010 mb)
Calm 0.00 in
(0.00 mm)
8SM
19:53
Mostly Cloudy
43°F / 6°C 36°F / 2°C 76% 29.83 in
(1010 mb)
Calm - 9SM
18:53
Partly Cloudy
43°F / 6°C 36°F / 2°C 76% 29.83 in
(1010 mb)
Calm - 9SM
17:53
Clear
41°F / 5°C 34°F / 1°C 76% 29.83 in
(1010 mb)
Calm - 10SM
16:53
Clear
45°F / 7°C 32°F / 0°C 61% 29.83 in
(1010 mb)
Calm - 10SM
15:53
Clear
48°F / 9°C 30°F / -1°C 50% 29.83 in
(1010 mb)
Calm - 10SM
14:53
Partly Cloudy
50°F / 10°C 28°F / -2°C 43% 29.86 in
(1011 mb)
N 4.6 mph
(N 7 kph)
- 10SM
13:53
Partly Cloudy
52°F / 11°C 28°F / -2°C 41% 29.86 in
(1011 mb)
NNE 8.1 mph
(NNE 13 kph)
- 10SM
12:53
Partly Cloudy
50°F / 10°C 28°F / -2°C 43% 29.92 in
(1013 mb)
N 5.8 mph
(N 9 kph)
- 10SM
11:53
Clear
48°F / 9°C 30°F / -1°C 50% 29.92 in
(1013 mb)
NNE 6.9 mph
(NNE 11 kph)
- 10SM
10:53
Clear
46°F / 8°C 30°F / -1°C 53% 29.95 in
(1014 mb)
N 4.6 mph
(N 7 kph)
- 10SM
09:53
Clear
43°F / 6°C 30°F / -1°C 61% 29.98 in
(1015 mb)
Calm - 10SM
08:53
Clear
39°F / 4°C 30°F / -1°C 70% 29.98 in
(1015 mb)
Calm - 10SM
07:53
Clear
39°F / 4°C 28°F / -2°C 65% 30.01 in
(1016 mb)
Calm - 10SM
06:53
Partly Cloudy
37°F / 3°C 28°F / -2°C 70% 30.01 in
(1016 mb)
NNW 3.5 mph
(NNW 6 kph)
- 10SM
05:53
Clear
36°F / 2°C 30°F / -1°C 81% 30.04 in
(1017 mb)
Calm - 10SM
04:53
Clear
36°F / 2°C 30°F / -1°C 81% 30.04 in
(1017 mb)
Calm - 10SM
03:53
Clear
36°F / 2°C 28°F / -2°C 75% 30.06 in
(1018 mb)
Calm - 10SM
02:53
Clear
34°F / 1°C 27°F / -3°C 75% 30.06 in
(1018 mb)
Calm - 9SM
01:53
Clear
34°F / 1°C 28°F / -2°C 81% 30.09 in
(1019 mb)
Calm - 10SM
00:53
Clear
36°F / 2°C 27°F / -3°C 70% 30.09 in
(1019 mb)
Calm - 10SM
Time Weather Temperature Dewpoint Humidity Pressure Winds Precip Visibility


Weather for websites

WeatherForYou.com, LLC is not responsible for any damages or problems caused by this service. Current weather conditions are obtained from the closest station including government and personal stations which may have varying degrees of accuracy. Weather forecasts are derived from the NOAA NDFD. Like all things, this site belongs to Jesus Christ... He just trusts me to maintain it. If you have any questions or comments email webmaster@weatherforyou.com

Copyright © 2014, WeatherForYou.com LLC. All rights reserved.